DW5310 Weather Reports


time (UTC)temp
C
wind
direction
speed
KPH
gust
KPH
rain 1hr
cm
rain 24hr
cm
rain mn
cm
humidity
%
barometer
mb
20260510014005 22 305 0.0 0.0 0.00 0.00 0.00 38 1014.5
20260510013005 22 215 0.0 0.0 0.00 0.00 0.00 38 1014.5
20260510012005 22 215 0.0 0.0 0.00 0.00 0.00 39 1014.5
20260510011505 23 305 0.0 0.0 0.00 0.00 0.00 39 1014.5
20260510010504 23 35 0.0 0.0 0.00 0.00 0.00 39 1014.5
20260510005005 23 192 0.0 0.0 0.00 0.00 0.00 41 1014.5
20260510004505 23 35 0.0 0.0 0.00 0.00 0.00 41 1014.5
20260510004004 23 35 0.0 0.0 0.00 0.00 0.00 41 1014.5
20260510003004 23 37 0.0 0.0 0.00 0.00 0.00 41 1014.5
20260510002504 23 92 0.0 0.0 0.00 0.00 0.00 41 1014.5
20260510002005 23 148 0.0 0.0 0.00 0.00 0.00 41 1014.5
20260510001005 23 193 0.0 0.0 0.00 0.00 0.00 40 1014.5
20260510000504 23 148 0.0 0.0 0.00 0.00 0.00 40 1014.5
20260509235504 24 35 0.0 0.0 0.00 0.00 0.00 41 1014.5
20260509234504 24 125 0.0 0.0 0.00 0.00 0.00 41 1014.5
20260509233505 24 34 0.0 0.0 0.00 0.00 0.00 41 1014.5
20260509233004 24 35 0.0 0.0 0.00 0.00 0.00 41 1014.5
20260509232504 24 63 0.0 0.0 0.00 0.00 0.00 41 1014.5
20260509232005 24 125 0.0 0.0 0.00 0.00 0.00 41 1014.5
20260509231504 25 243 0.0 0.0 0.00 0.00 0.00 42 1014.5
20260509231004 24 73 0.0 0.0 0.00 0.00 0.00 42 1014.5
20260509230504 24 35 0.0 0.0 0.00 0.00 0.00 42 1014.5
20260509230005 24 83 0.0 0.0 0.00 0.00 0.00 42 1015.5
20260509225504 24 260 0.0 0.0 0.00 0.00 0.00 41 1015.5
20260509225004 24 282 0.0 8.0 0.00 0.00 0.00 41 1015.5
20260509224504 24 84 0.0 12.9 0.00 0.00 0.00 42 1016.5
20260509224005 24 35 4.8 12.9 0.00 0.00 0.00 42 1016.5
20260509223504 24 353 4.8 12.9 0.00 0.00 0.00 42 1016.5
20260509223005 24 72 0.0 16.1 0.00 0.00 0.00 44 1016.5
20260509221505 23 212 1.6 9.7 0.00 0.00 0.00 44 1016.5
20260509221004 23 287 0.0 4.8 0.00 0.00 0.00 45 1016.5
20260509220004 23 238 3.2 12.9 0.00 0.00 0.00 46 1016.5
20260509215504 23 329 3.2 11.3 0.00 0.00 0.00 47 1016.5
20260509214504 23 131 1.6 12.9 0.00 0.00 0.00 48 1015.5
20260509214004 23 215 3.2 12.9 0.00 0.00 0.00 48 1015.5
20260509213504 23 305 4.8 12.9 0.00 0.00 0.00 47 1015.5
20260509213005 23 207 1.6 12.9 0.00 0.00 0.00 48 1016.5
20260509212503 23 205 4.8 12.9 0.00 0.00 0.00 49 1016.5
20260509212004 23 272 0.0 9.7 0.00 0.00 0.00 49 1016.5
20260509211504 23 35 0.0 9.7 0.00 0.00 0.00 50 1016.5
20260509210504 22 165 0.0 0.0 0.00 0.00 0.00 50 1016.5
20260509210004 22 26 0.0 0.0 0.00 0.00 0.00 50 1016.5
20260509205504 22 47 0.0 8.0 0.00 0.00 0.00 51 1016.5
20260509205003 22 311 0.0 9.7 0.00 0.00 0.00 51 1016.5
20260509204504 22 6 1.6 9.7 0.00 0.00 0.00 51 1016.5
20260509204004 22 298 0.0 9.7 0.00 0.00 0.00 52 1016.5
20260509203503 22 54 3.2 9.7 0.00 0.00 0.00 52 1016.5
20260509203004 22 279 0.0 9.7 0.00 0.00 0.00 53 1016.5
20260509202004 21 110 0.0 11.3 0.00 0.00 0.00 54 1016.5
20260509201504 21 258 0.0 11.3 0.00 0.00 0.00 55 1016.5
20260509201003 21 225 3.2 11.3 0.00 0.00 0.00 53 1016.5
20260509200504 21 12 0.0 11.3 0.00 0.00 0.00 55 1016.5
20260509200004 21 236 1.6 8.0 0.00 0.00 0.00 56 1016.5
20260509195503 21 40 1.6 8.0 0.00 0.00 0.00 56 1016.5
20260509195004 21 47 0.0 8.0 0.00 0.00 0.00 57 1016.5
20260509194504 20 351 0.0 8.0 0.00 0.00 0.00 57 1016.5
20260509194004 20 100 0.0 0.0 0.00 0.00 0.00 58 1016.5
20260509193504 20 305 0.0 9.7 0.00 0.00 0.00 58 1016.5
20260509193007 20 332 1.6 9.7 0.00 0.00 0.00 59 1017.5
20260509192006 20 332 0.0 11.3 0.00 0.00 0.00 60 1017.5
20260509191507 20 97 1.6 11.3 0.00 0.00 0.00 61 1017.5
20260509191006 19 71 3.2 11.3 0.00 0.00 0.00 61 1017.5
20260509190506 19 305 0.0 9.7 0.00 0.00 0.00 62 1017.5
20260509190007 19 35 0.0 4.8 0.00 0.00 0.00 63 1017.5
20260509185506 19 43 1.6 4.8 0.00 0.00 0.00 63 1017.5
20260509184506 18 42 0.0 3.2 0.00 0.00 0.00 66 1017.5
20260509184006 18 114 0.0 3.2 0.00 0.00 0.00 66 1017.5
20260509183507 18 7 0.0 9.7 0.00 0.00 0.00 67 1017.5
20260509182507 18 81 1.6 8.0 0.00 0.00 0.00 67 1017.5
20260509182007 18 54 1.6 8.0 0.00 0.00 0.00 68 1017.5
20260509181507 17 100 1.6 8.0 0.00 0.00 0.00 69 1017.5
20260509181007 17 328 0.0 0.0 0.00 0.00 0.00 69 1017.5
20260509175508 17 35 0.0 11.3 0.00 0.00 0.00 71 1017.5
20260509175008 17 48 3.2 11.3 0.00 0.00 0.00 72 1017.5
20260509174507 16 217 0.0 11.3 0.00 0.00 0.00 72 1017.5
20260509174007 16 100 0.0 11.3 0.00 0.00 0.00 73 1017.5
20260509173507 16 24 0.0 3.2 0.00 0.00 0.00 73 1017.5
20260509172506 16 48 1.6 9.7 0.00 0.00 0.00 75 1019.5
20260509171506 15 24 0.0 8.0 0.00 0.00 0.00 76 1018.5
20260509171006 15 304 1.6 8.0 0.00 0.00 0.00 77 1018.5
20260509170506 15 217 0.0 9.7 0.00 0.00 0.00 77 1018.5
20260509170006 15 98 0.0 9.7 0.00 0.00 0.00 78 1018.5
20260509165007 15 305 0.0 0.0 0.00 0.00 0.00 78 1018.5
20260509164506 14 203 0.0 0.0 0.00 0.00 0.00 80 1018.5
20260509164006 14 305 0.0 0.0 0.00 0.00 0.00 80 1018.5
20260509163006 14 35 0.0 12.9 0.00 0.00 0.00 81 1018.5
20260509162506 14 65 0.0 12.9 0.00 0.00 0.00 82 1018.5
20260509162006 14 106 0.0 8.0 0.00 0.00 0.00 81 1018.5
20260509161506 14 66 0.0 0.0 0.00 0.00 0.00 81 1018.5
20260509161006 13 30 0.0 0.0 0.00 0.00 0.00 82 1018.5
20260509160506 13 212 0.0 0.0 0.00 0.00 0.00 83 1018.5
20260509160007 13 318 0.0 3.2 0.00 0.00 0.00 84 1017.5
20260509155507 13 98 0.0 4.8 0.00 0.00 0.00 83 1017.5
20260509155006 13 36 0.0 4.8 0.00 0.00 0.00 83 1017.5
20260509154006 12 296 0.0 4.8 0.00 0.00 0.00 84 1018.5
20260509153506 12 33 0.0 4.8 0.00 0.00 0.00 84 1018.5
20260509153006 12 78 0.0 4.8 0.00 0.00 0.00 85 1018.5
20260509152507 12 46 0.0 8.0 0.00 0.00 0.00 85 1018.5
20260509151506 12 50 0.0 3.2 0.00 0.00 0.00 85 1018.5
20260509151006 12 35 0.0 3.2 0.00 0.00 0.00 85 1018.5
20260509150006 12 305 0.0 0.0 0.00 0.00 0.00 86 1018.5
20260509145510 11 95 0.0 0.0 0.00 0.00 0.00 87 1018.5
20260509145007 11 76 0.0 0.0 0.00 0.00 0.00 88 1018.5
20260509144506 11 42 0.0 0.0 0.00 0.00 0.00 88 1019.5
20260509144006 11 122 0.0 0.0 0.00 0.00 0.00 88 1019.5
20260509143507 11 305 0.0 0.0 0.00 0.00 0.00 88 1019.5
20260509143007 11 305 0.0 0.0 0.00 0.00 0.00 89 1018.5
20260509142506 11 305 0.0 0.0 0.00 0.00 0.00 89 1018.5
20260509142006 11 305 0.0 0.0 0.00 0.00 0.00 90 1018.5
20260509141506 11 305 0.0 0.0 0.00 0.00 0.00 90 1018.5
20260509141006 10 305 0.0 0.0 0.00 0.00 0.00 90 1018.5
20260509140506 10 305 0.0 0.0 0.00 0.00 0.00 90 1018.5
20260509140006 10 305 0.0 0.0 0.00 0.00 0.00 90 1018.5
20260509135506 10 305 0.0 0.0 0.00 0.00 0.00 90 1018.5
20260509135006 9 305 0.0 0.0 0.00 0.00 0.00 90 1018.5
20260509134506 9 305 0.0 0.0 0.00 0.00 0.00 90 1018.5
20260509134006 9 305 0.0 0.0 0.00 0.00 0.00 90 1018.5
20260509133506 9 305 0.0 0.0 0.00 0.00 0.00 89 1018.5
20260509132507 8 305 0.0 0.0 0.00 0.00 0.00 88 1018.5
20260509132006 8 305 0.0 0.0 0.00 0.00 0.00 89 1018.5
20260509131506 8 305 0.0 0.0 0.00 0.00 0.00 88 1018.5
20260509131007 8 305 0.0 0.0 0.00 0.00 0.00 88 1018.5
20260509130006 8 305 0.0 0.0 0.00 0.00 0.00 88 1018.5
20260509125506 8 305 0.0 0.0 0.00 0.00 0.00 88 1018.5
20260509125006 8 305 0.0 0.0 0.00 0.00 0.00 87 1018.5
20260509123506 8 305 0.0 0.0 0.00 0.00 0.00 86 1019.5
20260509123006 8 305 0.0 0.0 0.00 0.00 0.00 87 1018.5
20260509122506 8 305 0.0 0.0 0.00 0.00 0.00 86 1018.5
20260509122006 8 305 0.0 0.0 0.00 0.00 0.00 86 1018.5
20260509121506 8 305 0.0 0.0 0.00 0.00 0.00 86 1018.5
20260509121006 8 305 0.0 0.0 0.00 0.00 0.00 86 1018.5
20260509120506 9 305 0.0 0.0 0.00 0.00 0.00 86 1018.5
20260509115506 9 305 0.0 0.0 0.00 0.00 0.00 85 1018.5
20260509115006 9 305 0.0 0.0 0.00 0.00 0.00 85 1018.5
20260509114506 9 305 0.0 0.0 0.00 0.00 0.00 85 1019.5
20260509114006 9 305 0.0 0.0 0.00 0.00 0.00 85 1019.5
20260509113506 9 305 0.0 0.0 0.00 0.00 0.00 85 1019.5
20260509113006 9 305 0.0 0.0 0.00 0.00 0.00 85 1019.5
20260509112506 9 305 0.0 0.0 0.00 0.00 0.00 85 1019.5
20260509112006 9 305 0.0 0.0 0.00 0.00 0.00 85 1019.5
20260509111006 9 305 0.0 0.0 0.00 0.00 0.00 84 1019.5
20260509110006 9 305 0.0 0.0 0.00 0.00 0.00 84 1019.5
20260509105506 9 305 0.0 0.0 0.00 0.00 0.00 84 1019.5
20260509105005 9 305 0.0 0.0 0.00 0.00 0.00 84 1019.5
20260509104006 10 305 0.0 0.0 0.00 0.00 0.00 84 1019.5
20260509103505 10 305 0.0 0.0 0.00 0.00 0.00 83 1019.5
20260509103005 10 305 0.0 0.0 0.00 0.00 0.00 83 1019.5
20260509102005 10 305 0.0 0.0 0.00 0.00 0.00 82 1019.5
20260509101005 10 305 0.0 0.0 0.00 0.00 0.00 82 1019.5
20260509100506 10 305 0.0 0.0 0.00 0.00 0.00 81 1019.5
20260509100006 10 305 0.0 0.0 0.00 0.00 0.00 81 1020.5
20260509095505 10 305 0.0 0.0 0.00 0.00 0.00 80 1020.5
20260509095005 10 305 0.0 0.0 0.00 0.00 0.00 80 1020.5
20260509094006 10 305 0.0 0.0 0.00 0.00 0.00 79 1020.5
20260509093506 10 305 0.0 0.0 0.00 0.00 0.00 79 1020.5
20260509093005 10 305 0.0 0.0 0.00 0.00 0.00 79 1020.5
20260509092505 10 305 0.0 0.0 0.00 0.00 0.00 79 1020.5
20260509092006 10 305 0.0 0.0 0.00 0.00 0.00 78 1020.5
20260509091505 10 305 0.0 0.0 0.00 0.00 0.00 78 1020.5
20260509090005 10 305 0.0 0.0 0.00 0.00 0.00 77 1021.5
20260509085505 10 305 0.0 0.0 0.00 0.00 0.00 76 1021.5
20260509085006 11 305 0.0 0.0 0.00 0.00 0.00 77 1021.5
20260509084506 11 58 0.0 0.0 0.00 0.00 0.00 77 1020.5
20260509083505 11 58 0.0 0.0 0.00 0.00 0.00 76 1020.5
20260509083005 11 305 0.0 0.0 0.00 0.00 0.00 75 1020.5
20260509082505 11 305 0.0 0.0 0.00 0.00 0.00 75 1020.5
20260509082005 11 192 0.0 0.0 0.00 0.00 0.00 75 1020.5
20260509081005 11 170 0.0 0.0 0.00 0.00 0.00 75 1020.5
20260509080505 11 125 0.0 0.0 0.00 0.00 0.00 74 1020.5
20260509080006 11 125 0.0 0.0 0.00 0.00 0.00 74 1019.5
20260509075505 11 125 0.0 0.0 0.00 0.00 0.00 73 1019.5
20260509075006 11 35 0.0 0.0 0.00 0.00 0.00 73 1019.5
20260509074505 11 65 0.0 0.0 0.00 0.00 0.00 73 1020.5
20260509074005 11 80 0.0 0.0 0.00 0.00 0.00 72 1020.5
20260509073505 12 80 0.0 0.0 0.00 0.00 0.00 72 1020.5
20260509073005 12 35 0.0 0.0 0.00 0.00 0.00 72 1019.5
20260509072505 12 35 0.0 0.0 0.00 0.00 0.00 71 1019.5
20260509071505 12 238 0.0 0.0 0.00 0.00 0.00 71 1020.5
20260509070505 12 260 0.0 0.0 0.00 0.00 0.00 71 1020.5
20260509070005 12 260 0.0 0.0 0.00 0.00 0.00 70 1020.5
20260509065005 12 102 0.0 0.0 0.00 0.00 0.00 70 1020.5
20260509064006 12 170 0.0 0.0 0.00 0.00 0.00 70 1019.5
20260509063005 12 215 0.0 0.0 0.00 0.00 0.00 69 1020.5
20260509062005 13 35 0.0 0.0 0.00 0.00 0.00 68 1020.5
20260509060506 13 35 0.0 0.0 0.00 0.00 0.00 67 1019.5
20260509060005 13 35 0.0 0.0 0.00 0.00 0.00 66 1020.5
20260509055504 13 35 0.0 0.0 0.00 0.00 0.00 66 1020.5
20260509055005 13 35 0.0 0.0 0.00 0.00 0.00 66 1020.5
20260509054505 13 35 0.0 0.0 0.00 0.00 0.00 65 1020.5
20260509054005 13 35 0.0 0.0 0.00 0.00 0.00 64 1020.5
20260509053506 14 35 0.0 0.0 0.00 0.00 0.00 64 1020.5
20260509053005 14 35 0.0 0.0 0.00 0.00 0.00 63 1020.5
20260509052505 14 35 0.0 0.0 0.00 0.00 0.00 63 1020.5
20260509052005 14 86 0.0 0.0 0.00 0.00 0.00 63 1020.5
20260509051505 14 39 0.0 0.0 0.00 0.00 0.00 63 1020.5
20260509050505 15 55 0.0 0.0 0.00 0.00 0.00 61 1020.5
20260509050004 15 55 0.0 0.0 0.00 0.00 0.00 61 1020.5
20260509045005 15 58 0.0 0.0 0.00 0.00 0.00 60 1020.5
20260509044505 15 305 0.0 0.0 0.00 0.00 0.00 60 1020.5
20260509044005 15 305 0.0 0.0 0.00 0.00 0.00 60 1020.5
20260509043505 15 305 0.0 0.0 0.00 0.00 0.00 59 1020.5
20260509043005 15 305 0.0 0.0 0.00 0.00 0.00 59 1020.5
20260509042504 15 305 0.0 0.0 0.00 0.00 0.00 59 1020.5
20260509042005 15 305 0.0 0.0 0.00 0.00 0.00 58 1020.5
20260509041004 15 305 0.0 0.0 0.00 0.00 0.00 58 1020.5
20260509040505 16 305 0.0 0.0 0.00 0.00 0.00 58 1020.5
20260509040005 16 305 0.0 0.0 0.00 0.00 0.00 58 1020.5
20260509035504 16 305 0.0 0.0 0.00 0.00 0.00 57 1020.5
20260509035005 16 305 0.0 0.0 0.00 0.00 0.00 57 1020.5
20260509034004 16 305 0.0 0.0 0.00 0.00 0.00 56 1019.5
20260509033004 16 305 0.0 0.0 0.00 0.00 0.00 56 1019.5
20260509031005 16 305 0.0 0.0 0.00 0.00 0.00 54 1019.5
20260509030505 16 305 0.0 0.0 0.00 0.00 0.00 54 1019.5
20260509025505 16 305 0.0 0.0 0.00 0.00 0.00 53 1019.5
20260509025004 16 305 0.0 0.0 0.00 0.00 0.00 53 1019.5
20260509024504 17 305 0.0 0.0 0.00 0.00 0.00 52 1019.5
20260509024005 17 305 0.0 0.0 0.00 0.00 0.00 52 1019.5
20260509023504 17 305 0.0 0.0 0.00 0.00 0.00 52 1019.5
20260509023004 17 305 0.0 0.0 0.00 0.00 0.00 52 1019.5
20260509022504 17 305 0.0 0.0 0.00 0.00 0.00 52 1019.5
20260509022004 17 305 0.0 0.0 0.00 0.00 0.00 52 1019.5
20260509021504 17 305 0.0 0.0 0.00 0.00 0.00 51 1019.5
20260509020504 17 305 0.0 0.0 0.00 0.00 0.00 51 1019.5
20260509020006 17 305 0.0 0.0 0.00 0.00 0.00 51 1019.5
20260509015504 17 305 0.0 0.0 0.00 0.00 0.00 50 1019.5
20260509015004 17 282 0.0 0.0 0.00 0.00 0.00 50 1019.5